Regional Weather Roundup
Issued by NWS

Home | Current Version | Previous Version | Graphics & Text | Print | Product List | Glossary On
Versions: 1 2 3 4 5 6 7 8 9 10 11 12 13 14 15 16 17 18 19 20 21 22 23 24 25 26 27 28
000
ASUS45 KCYS 230210
RWRWY

WYOMING REGIONAL WEATHER ROUNDUP
NATIONAL WEATHER SERVICE CHEYENNE WY
800 PM MDT MON AUG 22 2016

NOTE:  "FAIR" INDICATES FEW OR NO CLOUDS BELOW 12,000 FEET
WITH NO SIGNIFICANT WEATHER AND/OR OBSTRUCTIONS TO VISIBILITY.

WYZ001-230300-
YELLOWSTONE NATIONAL PARK

CITY           SKY/WX    TMP DP  RH WIND       PRES   REMARKS
LK YELLOWSTONE   N/A     63   9  12 VRB7G18   30.11R
W YELLOWSTONE  NOT AVBL

$$
WYZ002>013-054>058-071-098>099-230300-
NORTHERN WYOMING

CITY           SKY/WX    TMP DP  RH WIND       PRES   REMARKS
JACKSON        NOT AVBL
CODY           FAIR      81  19  10 W10G18    29.84R
GREYBULL       FAIR      87   9   5 NW17      29.69R
WORLAND        FAIR      80  29  15 SW12      29.72R
SHERIDAN       FAIR      71  51  49 CALM      29.70S
BUFFALO        FAIR      80  29  15 VRB3      29.80S
GILLETTE       FAIR      73  41  31 CALM      29.76R
HULETT         FAIR      81  37  21 NE5       29.77R
NEWCASTLE      FAIR      84  23  10 CALM      29.76R

$$
WYZ014>020-022>026-101>103-230300-
CENTRAL WYOMING

CITY           SKY/WX    TMP DP  RH WIND       PRES   REMARKS
BIG PINEY      FAIR      67  18  15 NW12      30.09R
PINEDALE       FAIR      64  21  19 W7        30.09R
DUBOIS         FAIR      66   9  10 W9        30.03S
LANDER         FAIR      79  24  13 W14       29.88R
RIVERTON       FAIR      80  19  10 W14       29.88R
CASPER         FAIR      69  31  24 NW5       29.85S
DOUGLAS        FAIR      79  32  18 SW8       29.84R

$$
WYZ021-027>030-104>119-230300-
SOUTHERN WYOMING

CITY           SKY/WX    TMP DP  RH WIND       PRES   REMARKS
EVANSTON       FAIR      71  25  17 W9        30.12R
FORT BRIDGER   FAIR      74  22  14 W10       30.12S
ROCK SPRINGS   FAIR      73  25  16 W9        30.05R
DIXON          FAIR      72  34  24 SE7       30.11R
RAWLINS        FAIR      73  32  22 S20G28    30.04R
SARATOGA       FAIR      68  34  28 S17G29    30.12R
LARAMIE        FAIR      64  40  41 SW18G24   30.12R
CHEYENNE       FAIR      72  36  26 W8        30.02F
TORRINGTON     FAIR      82  34  17 SW16      29.81S
PINE BLUFFS    FAIR      73  34  23 SW7       29.93S

$$




USA.gov is the U.S. government's official web portal to all federal, state and local government web resources and services.